STARLINK-26

decayed
NORAD ID: 44240 Int'l Des: 2019-029 Owner: SPXS Country: US Constellation: starlink
LEOCIRCULAR
グループ

STARLINK-26について

説明を読み込み中...

高度履歴

Altitude vs Time

uPlot chart will show altitude changes over time

軌道要素

1 44240U 19029F 21100.41945393 .20637293 12492-4 12328-2 0 9999
2 44240 52.9634 161.2403 0004843 7.8568 353.8836 16.41561846106011
Epoch: Apr 10, 2021 • Age: 38865 hours

現在のステータス

Position data unavailable
打ち上げ日 May 24, 2019
運用期間 6.3 years
落下予定日 Apr 10, 2021
タイプ internet

技術仕様

分類 Payload
質量 227.00 kg
乾燥質量 219.00 kg
総質量 227.00 kg
長さ 0.20 m
直径 2.80 m
スパン 9.00 m
形状 Box + pan
製造者 SPXS
バスタイプ Starlink
フェーズステータス Unknown Transfer Status
所有者/国 SPXS/US

大規模コンステレーション

Loading constellations...